Temp
77 77 78 78 77 77 77 77 77 77 77 78 78 76 77 77 78 77 77 77 77 76 76 75 75 75 77 75 75 75 75 75 76 77 76 77 78 78 78 77 78 76
77 77 77 78 76 77 77 78 77 77 76 76 77 78 77 77 77 77 77 76 77 76 76 75 75 74 74 74 74 74 73 74 75 77 76 76 77 79 79 79 78 78
77 77 78 77 77 77 78 79 77 77 77 78 79 78 76 77 76 76 76 77 77 77 75 74 74 73 74 74 73 74 73 73 74 76 75 75 78 77 79 79 78 78
77 76 77 77 76 76 77 78 77 76 76 76 76 76 76 75 76 76 75 76 76 76 75 74 74 74 74 73 73 73 73 73 74 73 73 75 76 78 78 77 77 78
77 76 76 76 76 76 77 77 78 77 76 76 75 75 74 74 74 75 75 76 74 75 74 73 74 73 73 72 72 72 73 75 74 72 72 73 74 76 77 76 74 75
75 75 75 76 77 76 77 78 77 76 75 76 74 74 75 75 75 73 74 75 76 75 75 74 73 73 72 72 72 71 72 74 75 71 72 72 74 76 76 74 73 74
75 75 75 76 77 77 77 77 76 76 76 75 74 73 75 75 73 73 73 73 74 73 73 71 70 71 72 71 70 70 71 71 73 71 71 72 72 73 75 73 72 72
76 76 75 75 75 74 75 76 77 75 76 75 75 74 74 74 74 74 73 73 74 72 71 71 70 68 68 69 68 68 70 73 74 71 70 71 71 71 72 72 72 71
75 74 76 75 74 73 73 74 76 75 75 73 73 73 74 74 73 73 72 72 72 71 69 69 68 66 67 67 66 67 67 69 71 72 71 71 72 72 73 71 70 70
76 75 73 73 72 72 72 73 74 74 74 73 71 72 72 72 72 71 72 71 71 71 69 68 66 66 65 65 65 66 67 67 70 71 73 73 73 74 70 69 68 68
74 72 72 71 71 72 72 72 73 73 73 73 71 71 71 71 71 71 71 71 71 70 69 66 65 65 64 64 65 66 65 67 69 70 72 72 74 72 71 69 68 68
72 71 71 71 71 71 71 72 72 72 71 72 71 70 70 70 70 70 72 71 72 71 68 66 64 64 63 63 63 65 65 66 69 71 72 73 73 71 71 69 69 68
72 72 71 71 71 70 71 71 71 71 71 70 70 70 69 69 71 70 72 73 71 68 66 65 64 64 62 62 62 63 64 65 68 70 70 72 71 70 69 69 69 69
72 73 72 71 70 70 70 71 71 70 70 70 70 69 69 70 69 71 72 72 69 67 66 65 63 63 62 62 62 63 64 65 65 66 70 70 69 69 68 68 68 68
71 73 72 71 70 70 69 69 70 70 70 69 69 69 70 69 70 70 70 70 70 68 66 65 64 63 63 62 62 62 62 62 64 65 68 68 67 67 67 66 66 67
71 71 71 71 70 69 68 68 69 69 69 69 69 69 69 69 68 69 69 70 70 70 69 65 64 64 65 64 63 62 62 62 64 64 67 66 66 65 65 65 66 66
71 71 70 69 69 69 68 67 67 68 68 68 68 67 67 67 67 67 66 68 68 69 68 64 64 64 62 61 62 63 63 62 63 64 67 66 66 64 63 63 65 65
70 70 70 70 69 68 68 68 68 67 67 68 67 67 67 68 66 66 66 66 67 67 65 65 63 62 61 61 62 62 63 62 63 66 67 66 65 66 64 63 63 64
70 70 70 69 68 69 69 68 68 68 67 67 67 67 67 66 66 66 66 66 66 65 65 64 63 62 61 61 61 61 62 63 65 67 66 65 65 64 63 63 62 63
69 69 70 69 70 69 69 68 68 67 68 68 68 67 66 67 67 67 66 65 65 65 64 62 62 62 61 60 60 60 61 62 66 67 66 65 64 63 63 62 62 62
68 68 68 69 69 69 68 68 67 67 67 67 68 67 66 66 66 66 66 66 66 66 66 63 62 61 60 60 59 59 60 64 66 67 66 65 65 65 63 62 62 63
68 68 67 68 69 69 69 68 67 67 67 68 68 67 68 68 67 67 66 66 66 66 65 64 61 60 60 59 59 58 61 64 64 65 64 64 64 64 64 62 62 61
68 67 67 67 67 67 66 66 66 66 67 68 67 67 67 67 66 67 66 66 66 66 64 65 63 60 58 58 58 57 61 63 63 63 64 64 64 64 64 62 62 60
68 68 67 67 67 66 66 66 67 67 67 68 67 66 66 67 67 67 67 67 67 66 67 65 63 61 59 58 58 57 60 62 62 62 62 62 63 64 64 61 61 63
70 69 68 67 67 67 67 66 66 67 68 68 68 68 67 67 68 67 67 68 67 67 69 66 65 63 59 58 58 58 59 61 62 61 60 60 62 62 64 63 63 64
69 69 70 70 68 69 68 68 68 67 67 68 67 68 67 68 68 67 67 67 68 68 68 67 65 65 62 59 58 59 59 60 62 60 59 60 61 62 62 61 62 62
MSLP
1015.73 1015.57 1015.49 1015.37 1015.41 1015.37 1015.29 1015.25 1015.17 1015.09 1014.97 1014.73 1014.69 1014.69 1014.53 1014.29 1014.17 1014.25 1014.25 1014.13 1014.05 1014.09 1014.01 1014.01 1013.89 1013.85 1013.69 1013.61 1013.49 1013.33 1013.25 1013.17 1012.89 1012.73 1012.65 1012.41 1012.25 1012.05 1011.97 1011.81 1011.73 1011.73
1015.93 1015.81 1015.65 1015.57 1015.61 1015.45 1015.21 1015.13 1015.25 1015.17 1015.13 1014.85 1014.73 1014.61 1014.45 1014.37 1014.53 1014.53 1014.49 1014.37 1014.13 1014.13 1014.17 1014.17 1014.13 1014.09 1013.97 1013.89 1013.73 1013.61 1013.49 1013.33 1013.25 1012.93 1012.97 1012.73 1012.49 1012.17 1012.05 1011.93 1012.01 1011.69
1016.13 1016.09 1016.01 1016.05 1016.01 1015.81 1015.49 1015.13 1015.21 1015.25 1015.21 1015.05 1014.77 1014.69 1014.93 1014.73 1014.85 1014.73 1014.57 1014.45 1014.41 1014.29 1014.37 1014.45 1014.45 1014.37 1014.25 1014.13 1013.93 1013.85 1013.69 1013.57 1013.57 1013.33 1013.25 1013.05 1012.65 1012.45 1012.21 1012.17 1012.21 1012.01
1016.29 1016.33 1016.29 1016.25 1016.09 1015.97 1015.61 1015.33 1015.29 1015.41 1015.33 1015.29 1015.29 1015.25 1015.25 1015.25 1015.13 1014.97 1014.77 1014.65 1014.65 1014.61 1014.65 1014.69 1014.73 1014.65 1014.49 1014.41 1014.21 1014.09 1013.93 1013.65 1013.65 1013.65 1013.57 1013.21 1012.85 1012.65 1012.45 1012.53 1012.57 1012.33
1016.57 1016.57 1016.45 1016.37 1016.17 1015.97 1015.73 1015.53 1015.45 1015.61 1015.61 1015.41 1015.49 1015.45 1015.57 1015.57 1015.49 1015.33 1015.13 1014.89 1014.89 1014.93 1014.85 1014.89 1014.89 1014.89 1014.77 1014.69 1014.57 1014.45 1014.21 1013.89 1013.77 1013.89 1013.89 1013.65 1013.21 1012.97 1012.81 1013.01 1013.01 1012.85
1016.69 1016.69 1016.57 1016.45 1016.25 1016.13 1016.01 1015.65 1015.61 1015.77 1015.85 1015.73 1015.97 1015.93 1015.77 1015.65 1015.65 1015.69 1015.61 1015.37 1015.17 1015.21 1015.17 1015.33 1015.33 1015.21 1015.09 1014.93 1014.81 1014.77 1014.49 1014.21 1013.97 1014.13 1014.17 1013.93 1013.65 1013.29 1013.21 1013.37 1013.41 1013.25
1016.81 1016.77 1016.73 1016.45 1016.33 1016.37 1016.29 1016.01 1015.97 1015.97 1015.97 1016.05 1016.05 1016.17 1015.89 1015.81 1015.85 1015.89 1015.93 1015.81 1015.61 1015.65 1015.81 1015.89 1015.85 1015.73 1015.49 1015.29 1015.17 1015.05 1014.77 1014.41 1014.09 1014.25 1014.37 1014.13 1013.85 1013.69 1013.49 1013.65 1013.65 1013.53
1016.73 1016.69 1016.69 1016.61 1016.61 1016.77 1016.73 1016.49 1016.25 1016.25 1016.21 1016.17 1016.25 1016.13 1016.05 1016.05 1016.13 1016.09 1016.21 1016.13 1015.89 1016.01 1016.17 1016.17 1016.17 1016.21 1016.25 1016.05 1015.97 1015.77 1015.33 1014.81 1014.33 1014.37 1014.45 1014.29 1014.01 1013.93 1013.69 1013.69 1013.65 1013.69
1016.81 1017.01 1016.93 1016.93 1017.05 1017.05 1017.01 1016.85 1016.65 1016.53 1016.45 1016.69 1016.73 1016.57 1016.33 1016.33 1016.45 1016.41 1016.29 1016.29 1016.17 1016.21 1016.41 1016.49 1016.53 1016.73 1016.69 1016.61 1016.49 1016.21 1015.93 1015.49 1015.05 1014.61 1014.57 1014.53 1014.25 1014.01 1013.81 1013.89 1013.97 1014.01
1017.21 1017.21 1017.33 1017.33 1017.41 1017.37 1017.37 1017.21 1017.05 1016.85 1016.73 1016.81 1016.97 1016.93 1016.77 1016.69 1016.61 1016.45 1016.33 1016.41 1016.41 1016.41 1016.65 1016.73 1017.01 1017.09 1017.09 1016.97 1016.81 1016.53 1016.25 1015.89 1015.33 1014.97 1014.73 1014.57 1014.33 1014.09 1014.41 1014.49 1014.53 1014.45
1017.61 1017.73 1017.73 1017.73 1017.73 1017.65 1017.61 1017.45 1017.29 1017.25 1017.09 1017.13 1017.21 1017.17 1017.05 1016.97 1016.89 1016.65 1016.45 1016.49 1016.53 1016.77 1017.01 1017.25 1017.45 1017.49 1017.49 1017.29 1017.05 1016.77 1016.49 1016.09 1015.57 1015.21 1014.89 1014.73 1014.29 1014.45 1014.61 1014.77 1014.77 1014.73
1017.85 1018.01 1018.05 1018.09 1018.05 1017.97 1017.85 1017.69 1017.53 1017.53 1017.53 1017.49 1017.45 1017.45 1017.33 1017.25 1017.17 1017.01 1016.61 1016.65 1016.65 1016.85 1017.33 1017.65 1017.85 1017.89 1017.89 1017.69 1017.41 1017.05 1016.69 1016.25 1015.65 1015.25 1015.01 1014.77 1014.57 1014.73 1014.85 1015.05 1015.09 1015.01
1018.05 1018.17 1018.25 1018.29 1018.25 1018.29 1018.13 1017.97 1017.89 1017.89 1017.85 1017.85 1017.73 1017.73 1017.69 1017.61 1017.41 1017.17 1016.85 1016.81 1016.93 1017.41 1017.81 1018.05 1018.13 1018.17 1018.09 1017.89 1017.69 1017.37 1017.01 1016.57 1015.97 1015.53 1015.29 1015.01 1015.05 1015.17 1015.29 1015.29 1015.25 1015.21
1018.29 1018.25 1018.33 1018.45 1018.45 1018.45 1018.33 1018.21 1018.09 1018.13 1018.13 1018.05 1018.01 1018.05 1018.01 1017.89 1017.81 1017.49 1017.13 1017.05 1017.33 1017.69 1017.93 1018.09 1018.25 1018.29 1018.17 1018.05 1017.85 1017.57 1017.21 1016.85 1016.49 1016.13 1015.45 1015.49 1015.53 1015.57 1015.73 1015.69 1015.57 1015.53
1018.45 1018.29 1018.41 1018.53 1018.57 1018.57 1018.53 1018.45 1018.33 1018.25 1018.25 1018.25 1018.25 1018.21 1018.13 1018.05 1017.97 1017.85 1017.69 1017.53 1017.41 1017.61 1017.81 1018.09 1018.33 1018.37 1018.25 1018.17 1017.97 1017.69 1017.45 1017.17 1016.73 1016.41 1015.85 1015.93 1015.97 1016.01 1016.01 1016.05 1016.01 1015.81
1018.57 1018.57 1018.57 1018.57 1018.69 1018.77 1018.81 1018.77 1018.61 1018.45 1018.45 1018.49 1018.45 1018.37 1018.29 1018.25 1018.33 1018.21 1017.97 1017.77 1017.61 1017.53 1017.49 1018.13 1018.41 1018.45 1018.37 1018.25 1018.05 1017.81 1017.53 1017.21 1016.85 1016.49 1016.01 1016.13 1016.17 1016.29 1016.37 1016.37 1016.21 1016.13
1018.65 1018.65 1018.65 1018.77 1018.73 1018.85 1018.97 1018.97 1018.93 1018.69 1018.57 1018.61 1018.73 1018.73 1018.73 1018.61 1018.61 1018.61 1018.57 1018.37 1018.17 1018.01 1017.97 1018.45 1018.61 1018.53 1018.45 1018.33 1018.05 1017.77 1017.53 1017.25 1016.93 1016.45 1016.05 1016.17 1016.29 1016.49 1016.69 1016.73 1016.53 1016.37
1018.89 1018.77 1018.77 1018.81 1018.81 1018.97 1018.97 1019.05 1018.97 1018.97 1018.81 1018.73 1018.77 1018.89 1018.89 1018.77 1018.81 1018.81 1018.81 1018.69 1018.49 1018.29 1018.45 1018.61 1018.85 1018.81 1018.49 1018.37 1018.09 1017.81 1017.49 1017.17 1016.85 1016.41 1016.25 1016.45 1016.53 1016.49 1016.77 1016.85 1016.81 1016.65
1018.93 1018.85 1018.85 1018.81 1018.93 1018.93 1018.97 1018.97 1019.01 1019.01 1019.01 1018.89 1018.93 1018.97 1018.97 1018.93 1018.85 1018.81 1018.85 1018.73 1018.65 1018.57 1018.61 1018.89 1019.05 1019.01 1018.65 1018.41 1018.13 1017.81 1017.45 1017.13 1016.73 1016.37 1016.65 1016.77 1016.73 1016.85 1016.93 1017.01 1016.97 1016.85
1019.09 1018.97 1018.85 1018.85 1018.81 1018.89 1018.89 1019.01 1019.05 1019.09 1019.05 1018.97 1018.93 1018.97 1018.93 1018.85 1018.77 1018.77 1018.77 1018.81 1018.81 1018.73 1018.81 1019.09 1019.17 1019.09 1018.81 1018.57 1018.29 1017.93 1017.49 1017.09 1016.65 1016.53 1016.57 1016.77 1016.89 1017.05 1017.13 1017.21 1017.17 1017.01
1019.13 1019.13 1019.09 1018.89 1018.89 1018.89 1018.97 1019.05 1019.09 1019.09 1019.05 1019.01 1018.97 1018.97 1018.93 1018.81 1018.77 1018.73 1018.77 1018.81 1018.77 1018.77 1018.69 1019.01 1019.21 1019.05 1018.85 1018.77 1018.57 1018.25 1017.81 1017.29 1016.85 1016.73 1016.73 1016.85 1016.93 1017.01 1017.17 1017.33 1017.33 1017.25
1019.29 1019.25 1019.29 1019.09 1018.93 1018.93 1018.97 1018.97 1019.09 1019.09 1019.13 1019.01 1018.97 1018.93 1018.89 1018.77 1018.73 1018.73 1018.85 1018.81 1018.77 1018.77 1018.77 1018.85 1019.17 1019.01 1018.89 1018.81 1018.69 1018.45 1018.09 1017.61 1017.33 1017.09 1016.93 1016.97 1016.97 1017.09 1017.09 1017.25 1017.45 1017.49
1019.33 1019.37 1019.37 1019.41 1019.33 1019.29 1019.33 1019.41 1019.37 1019.29 1019.21 1019.09 1019.05 1019.01 1018.97 1018.89 1018.93 1018.85 1018.81 1018.81 1018.81 1018.77 1018.85 1018.69 1018.97 1019.09 1018.97 1018.89 1018.77 1018.65 1018.29 1017.97 1017.73 1017.53 1017.13 1017.09 1017.09 1017.09 1017.13 1017.41 1017.61 1017.69
1019.33 1019.41 1019.41 1019.41 1019.41 1019.57 1019.49 1019.45 1019.41 1019.41 1019.37 1019.21 1019.09 1019.17 1019.09 1019.01 1018.89 1018.89 1018.77 1018.73 1018.73 1018.77 1018.65 1018.69 1018.93 1019.09 1018.97 1018.93 1018.85 1018.81 1018.57 1018.25 1018.01 1017.85 1017.65 1017.49 1017.37 1017.21 1017.21 1017.57 1017.73 1017.69
1019.09 1019.13 1019.29 1019.33 1019.49 1019.49 1019.49 1019.53 1019.49 1019.45 1019.29 1019.13 1019.05 1018.93 1019.05 1019.01 1018.85 1018.85 1018.85 1018.61 1018.65 1018.65 1018.49 1018.65 1018.77 1018.89 1018.93 1018.93 1018.93 1018.89 1018.77 1018.45 1018.25 1018.17 1018.05 1017.93 1017.69 1017.49 1017.33 1017.41 1017.53 1017.45
1019.13 1019.13 1019.09 1019.09 1019.21 1019.21 1019.29 1019.29 1019.21 1019.37 1019.37 1019.25 1019.17 1018.97 1019.05 1019.05 1018.93 1018.89 1018.85 1018.73 1018.61 1018.53 1018.53 1018.53 1018.69 1018.65 1018.85 1018.93 1019.01 1019.01 1018.93 1018.73 1018.41 1018.41 1018.29 1018.13 1017.85 1017.65 1017.49 1017.53 1017.61 1017.61
Wind_Speed
5 6 5 6 6 5 5 6 5 6 5 6 6 6 5 5 8 8 9 8 7 7 8 8 7 8 9 8 8 7 7 9 7 7 8 9 8 9 7 7 7 6
7 7 7 6 6 5 5 4 5 6 6 6 5 5 5 6 9 9 8 7 6 7 8 8 8 9 9 8 8 7 7 8 7 8 8 10 8 9 9 9 9 7
7 8 9 9 8 9 9 5 4 5 6 7 6 6 8 8 7 6 6 7 7 8 8 8 8 8 9 9 8 7 7 8 8 10 9 8 8 8 8 10 9 10
8 8 8 8 8 8 8 5 4 5 5 6 8 9 8 8 8 8 6 7 7 8 8 8 8 8 9 9 9 7 8 7 9 9 9 8 7 9 8 9 9 9
9 8 8 6 5 6 6 6 6 6 6 5 8 9 8 8 8 9 8 7 7 8 7 8 9 9 8 7 9 8 9 7 7 8 8 8 7 8 8 9 9 11
6 5 5 5 6 7 8 8 10 7 7 9 10 8 7 7 8 8 10 10 9 10 10 11 12 11 10 9 7 8 8 10 7 8 9 7 8 9 8 9 9 10
5 5 6 5 6 10 8 10 7 7 7 8 6 5 6 7 8 8 9 9 9 10 11 9 9 9 9 9 9 9 9 9 5 8 7 8 7 7 8 7 7 8
6 6 6 6 8 7 8 10 9 7 8 6 9 6 7 8 10 9 9 9 9 9 9 10 9 11 13 11 12 12 12 10 9 7 7 7 6 6 5 5 5 7
7 6 7 8 8 7 7 8 9 8 8 10 10 9 8 9 8 8 5 7 7 7 8 9 10 11 10 11 10 11 11 12 12 9 6 8 8 6 8 9 10 9
8 7 8 7 7 7 9 8 7 7 7 7 7 7 8 7 7 6 4 5 6 8 10 10 11 11 11 10 11 10 11 11 11 10 9 9 8 8 11 9 9 9
8 8 7 8 8 7 9 9 8 9 8 10 8 9 8 7 7 8 6 5 7 10 10 11 11 12 12 12 12 11 11 11 10 8 9 8 9 10 11 10 10 8
6 6 8 8 9 9 8 8 8 8 8 8 8 8 8 8 7 7 6 7 7 9 12 12 10 11 10 11 11 11 11 11 9 8 9 9 10 12 11 10 9 10
7 8 7 8 8 8 8 7 8 8 9 8 7 7 8 7 7 8 6 8 9 13 12 11 10 10 9 10 10 10 10 11 11 10 8 9 10 11 12 10 9 10
5 7 7 6 6 6 6 7 7 7 7 6 6 7 7 9 8 9 7 6 10 9 8 8 9 10 10 10 10 9 9 10 10 12 7 8 9 10 10 10 10 9
4 5 6 6 5 5 6 7 6 5 5 5 6 5 5 6 7 9 9 8 7 7 7 8 8 10 10 11 10 10 10 9 9 11 8 8 8 9 9 10 9 9
4 4 4 5 6 6 6 6 7 6 6 6 6 6 7 7 7 7 8 7 7 7 6 10 9 9 17 22 17 11 9 8 8 9 5 7 6 7 9 8 9 9
3 4 4 5 5 6 6 6 6 6 4 5 6 7 7 7 7 8 8 10 10 9 9 10 10 12 21 19 20 21 13 9 8 8 5 5 8 7 7 8 8 9
4 3 4 4 5 5 4 5 4 5 6 5 5 5 5 4 5 5 5 6 6 7 9 9 10 15 16 20 20 20 19 11 8 5 7 7 7 8 8 7 7 7
2 3 3 3 4 4 4 4 4 4 5 5 6 6 4 4 4 4 4 4 6 7 7 9 9 13 16 19 19 20 20 16 6 5 7 8 8 9 8 8 7 7
4 2 2 3 4 4 3 4 3 4 4 4 4 3 3 3 5 4 4 5 6 6 5 7 8 11 14 15 16 19 20 17 4 7 5 7 7 7 7 7 8 7
4 3 4 3 4 3 3 2 4 3 4 3 3 4 4 4 4 5 5 5 5 6 6 6 5 9 11 11 11 14 16 16 8 6 6 6 6 6 6 7 7 8
5 4 4 5 3 2 3 3 4 3 4 5 4 3 4 4 5 5 6 5 5 5 6 4 4 9 9 9 10 13 15 10 9 8 5 4 5 6 4 6 6 6
6 5 4 3 4 6 6 6 5 5 5 3 3 4 4 4 4 4 4 4 5 5 5 4 5 6 7 8 9 12 11 7 8 8 6 6 6 4 4 7 6 6
5 4 4 4 5 4 4 4 3 3 3 3 2 3 4 4 4 3 3 3 4 4 5 5 4 4 6 7 8 10 11 8 7 8 8 7 6 6 4 7 8 12
3 3 4 4 4 3 4 4 3 3 3 3 4 2 3 3 4 3 4 3 3 3 8 6 3 3 5 4 6 8 8 6 6 7 6 7 6 5 4 6 4 5
6 7 4 3 4 3 3 1 2 3 4 3 3 3 4 2 3 3 2 3 3 3 3 3 3 2 3 0 3 5 8 7 6 7 7 7 7 5 5 5 6 6
Wind_Direction
17 351 355 3 19 17 343 8 11 345 359 344 7 356 2 351 21 15 11 353 9 20 16 22 9 12 9 12 353 1 1 343 6 7 359 353 354 352 357 358 11 353
23 3 5 13 6 4 339 28 4 352 7 341 17 341 2 12 19 14 1 351 6 28 29 20 15 12 5 11 352 7 356 340 19 6 360 356 355 355 358 12 9 349
29 13 11 16 3 1 342 18 13 11 4 341 359 9 22 10 359 15 348 13 12 20 29 22 14 13 4 5 352 0 354 345 30 7 358 352 355 355 8 17 8 359
31 19 13 13 358 357 343 352 35 20 5 341 23 25 20 13 359 6 355 26 15 21 25 26 15 11 4 7 350 4 352 345 28 7 354 347 354 357 9 21 5 0
30 17 9 12 353 357 341 326 34 31 7 342 36 20 22 18 16 10 7 10 27 16 17 23 14 15 356 16 357 1 352 343 32 11 352 348 353 1 14 18 5 0
47 21 3 358 5 357 358 344 33 27 13 11 32 14 18 24 29 24 14 4 18 18 18 25 15 8 3 0 2 357 346 335 31 21 355 349 353 8 12 16 5 359
50 43 2 351 14 12 7 351 35 19 19 22 22 18 3 26 21 28 23 2 14 23 26 24 16 6 1 356 355 2 346 330 34 26 357 352 340 6 17 18 4 353
18 37 357 18 19 31 12 358 14 19 19 18 19 10 14 24 26 24 20 4 12 31 29 28 17 22 11 6 1 356 348 348 351 25 353 351 334 2 10 27 4 1
49 31 13 21 21 18 17 6 9 6 23 23 20 7 15 23 24 17 9 17 3 35 43 29 29 25 13 5 357 354 345 346 339 352 6 348 350 350 10 17 15 10
15 27 34 22 25 21 16 14 8 8 18 29 25 13 13 29 9 353 352 45 14 26 39 27 34 25 13 3 356 348 347 338 342 351 355 352 337 6 37 23 19 7
36 37 32 29 20 26 17 13 17 18 11 20 15 17 11 16 8 351 334 53 22 41 43 38 32 20 8 358 353 350 342 338 337 344 346 350 341 37 29 26 10 11
56 50 40 30 25 22 16 14 15 20 18 22 13 14 17 14 10 333 345 40 21 49 50 43 34 19 6 356 350 348 342 333 332 338 353 343 11 18 27 23 7 10
29 46 45 36 32 30 16 12 23 30 20 23 17 21 14 11 2 339 14 18 37 60 54 45 34 19 6 359 351 346 342 329 339 344 359 351 18 23 17 15 8 17
33 45 41 43 42 33 22 17 25 36 30 23 29 23 20 17 13 354 15 20 64 69 63 50 34 20 8 5 353 350 345 337 341 325 357 11 19 22 15 17 7 19
40 30 46 43 45 39 29 19 22 34 48 31 32 31 25 28 14 9 10 11 37 70 78 58 35 20 12 8 0 355 349 338 335 329 356 18 21 21 21 25 13 11
26 56 57 50 50 44 39 27 10 16 39 28 25 20 19 36 26 15 357 13 5 12 37 64 34 23 16 8 6 2 349 340 329 320 357 30 25 38 28 21 17 3
15 43 50 47 53 56 50 33 13 359 25 54 41 29 17 23 27 23 14 11 8 6 29 58 34 23 18 6 4 359 357 338 329 314 30 26 25 41 34 27 15 10
12 34 51 46 49 62 51 51 38 7 4 30 52 47 26 18 44 26 30 9 354 13 51 45 39 19 16 7 2 357 353 343 323 328 24 28 24 25 37 29 20 17
5 21 49 59 70 54 31 56 32 26 24 10 43 50 19 358 45 34 33 10 14 7 41 51 41 19 22 5 3 355 347 343 322 23 40 35 27 26 32 31 18 19
46 4 20 54 50 61 50 51 17 49 26 29 29 35 23 358 34 25 38 40 17 14 48 67 43 28 31 5 359 356 347 342 338 18 30 37 36 37 37 33 20 13
69 38 340 53 62 50 61 42 37 30 19 45 21 24 359 347 44 17 43 43 23 19 8 76 46 39 39 17 355 348 345 339 360 5 30 42 35 42 46 44 28 25
19 31 5 348 30 39 21 22 49 29 21 13 22 40 4 3 19 29 27 19 30 17 9 54 69 46 41 27 0 349 348 345 356 352 29 34 33 38 26 57 47 34
27 14 26 11 5 2 24 25 17 8 29 360 8 13 13 24 9 20 30 20 14 12 15 354 76 48 44 31 15 356 349 355 360 343 2 18 27 43 40 71 65 64
35 24 19 30 26 19 18 24 29 17 28 326 4 12 6 13 14 20 10 28 19 17 352 13 67 58 53 36 24 3 347 353 357 353 0 7 12 358 58 100 85 69
57 67 56 38 55 42 34 44 20 29 355 349 343 31 48 3 4 21 350 11 30 41 355 28 11 104 77 49 20 6 355 341 2 358 356 356 355 357 10 46 45 12
17 12 16 49 52 42 100 91 127 56 16 1 356 357 49 347 9 352 336 6 13 358 37 28 6 12 111 87 53 11 345 343 1 6 355 351 340 359 352 53 17 12